Saltillo, México

5:28 AM CST en Febrero 17, 2019 (GMT -0600)
Plan De Guadalupe International

Tiempo Historia de MMIO - Enero, 2019

Change the Weather History Date:

Sábado, Enero 12, 2019

  Actual Average Record
Temperature  
Temperatura media 55 ° F -  
Temperatura máxima 69 ° F 64 ° F 83 ° F (2017)
Temperatura mínima 41 ° F 44 ° F 25 ° F (2016)
Degree Days  
Grados día de calefacción 10    
Growing Degree Days 5 (Base 50)    
Moisture  
Punto de rocío 45 ° F    
Average Humidity 66    
Maximum Humidity 93    
Minimum Humidity 29    
Precipitación  
Precipitación 0.00 pul - - ()
Presión al nivel del mar  
Presión al nivel del mar 30.19 pul    
Viento  
Velocidad del viento 2 mph ()    
Velocidad máxima del viento 14 mph    
Max Gust Speed -    
Visibilidad 9.4 Millas    
Eventos      
Averages and records for this station are not official NWS values.
T = Trace of Precipitation, MM = Missing Value Source: Averaged Metar Reports

Daily Weather History Graph

Daily Weather History Graph

Search for Another Location

Airport or City:

Astronomía

Jan. 12, 2019 Salida Puesta
Hora real 8:31 AM EST 7:13 PM EST
Crepúsculo civil 8:06 AM EST 7:38 PM EST
Crepúsculo náutico 7:38 AM EST 8:06 PM EST
Crepúsculo astronómico 7:10 AM EST 8:34 PM EST
Luna 12:46 PM EST (1/12) 12:09 AM EST (1/12)
Horas de luz 11h 31m
Horas de luz
10h 41m
Creciente, 35% of the Moon is Illuminated
Ene 12
Creciente
Ene 14
Cuarto creciente
Ene 21
Luna llena
Ene 27
Cuarto menguante
Feb 4
Nueva

Hourly Weather History & Observations

Hora (EST) Temp. Punto de rocío Humedad Presión Visibilidad Wind Dir Velocidad del viento Velocidad de ráfagas Precip Eventos Condiciones
12:40 AM 44.6 ° F 39.2 ° F 81% 30.30 pul 10.0 mi Sin viento Sin viento - N/A   Despejado
3:50 AM 44 ° F 42 ° F 91% 30.04 pul 3 mi SSO 2.2 mph - -   Bruma
6:40 AM 46.4 ° F 35.6 ° F 66% 30.22 pul 10.0 mi Sin viento Sin viento - N/A   Despejado
6:50 AM 45 ° F 41 ° F 82% 30.10 pul 3 mi SSO 2.2 mph - -   Despejado
7:40 AM 46.4 ° F 35.6 ° F 66% 30.22 pul 10.0 mi Sin viento Sin viento - N/A   Despejado
8:40 AM 44.6 ° F 42.8 ° F 93% 30.31 pul 10.0 mi Sin viento Sin viento - N/A   Despejado
9:40 AM 46.4 ° F 35.6 ° F 66% 30.27 pul 10.0 mi Sin viento Sin viento - N/A   Despejado
9:50 AM 41 ° F 36 ° F 76% 30.20 pul 12 mi SSO 2.2 mph - -  
10:40 AM 59.0 ° F 53.6 ° F 82% 30.30 pul 10.0 mi Sin viento Sin viento - N/A   Despejado
12:40 PM 64.4 ° F 55.4 ° F 73% 30.28 pul 10.0 mi Sin viento Sin viento - N/A   Despejado
12:50 PM 60 ° F 40 ° F 36% 30.18 pul 12 mi NO 4.5 mph - -  
1:40 PM 68.0 ° F 53.6 ° F 60% 30.25 pul 10.0 mi Sin viento Sin viento - N/A   Despejado
2:40 PM 68.0 ° F 53.6 ° F 60% 30.22 pul 10.0 mi Sin viento Sin viento - N/A   Despejado
3:40 PM 68.0 ° F 55.4 ° F 64% 30.20 pul 10.0 mi Sin viento Sin viento - N/A   Despejado
3:50 PM 67 ° F 42 ° F 29% 30.02 pul 12 mi ENE 4.5 mph - -  
4:40 PM 68.0 ° F 55.4 ° F 64% 30.20 pul 10.0 mi Sin viento Sin viento - N/A   Despejado
5:40 PM 62.6 ° F 53.6 ° F 72% 30.22 pul 10.0 mi Norte 13.8 mph - N/A   Despejado
6:40 PM 60.8 ° F 53.6 ° F 77% 30.23 pul 10.0 mi Norte 12.7 mph - N/A   Despejado
6:50 PM 62 ° F 40 ° F 33% 30.00 pul 12 mi ENE 6.7 mph - -  
9:50 PM 47 ° F 36 ° F 54% 30.01 pul 3 mi SSO 2.2 mph - -   Bruma